Meteo pe oră la Dachnyy

Astăzi, 11 Aprilie, Duminică

Timp Temperatura Precipitaţii Vânt Presiune Umiditate
00:00 +2°C° 0 mm 1 m/s 758 mmHg 91%
01:00 +2°C° 0 mm 1 m/s 758 mmHg 91%
02:00 +1°C° 0 mm 1 m/s 759 mmHg 90%
03:00 +1°C° 0 mm 1 m/s 759 mmHg 90%
04:00 +1°C° 0 mm 1 m/s 759 mmHg 88%
05:00 +1°C° 0 mm 1 m/s 759 mmHg 85%
06:00 +2°C° 0 mm 1 m/s 760 mmHg 83%
07:00 +3°C° 0 mm 2 m/s 760 mmHg 74%
08:00 +5°C° 0 mm 2 m/s 760 mmHg 65%
09:00 +7°C° 0 mm 2 m/s 761 mmHg 56%
10:00 +8°C° 0 mm 2 m/s 761 mmHg 52%
11:00 +9°C° 0 mm 2 m/s 761 mmHg 47%
12:00 +10°C° 0 mm 3 m/s 761 mmHg 43%
13:00 +10°C° 0 mm 3 m/s 761 mmHg 42%
14:00 +10°C° 0 mm 3 m/s 761 mmHg 42%
15:00 +11°C° 0 mm 3 m/s 761 mmHg 41%
16:00 +10°C° 0 mm 3 m/s 761 mmHg 48%
17:00 +9°C° 0 mm 3 m/s 762 mmHg 54%
18:00 +8°C° 0 mm 2 m/s 762 mmHg 60%
19:00 +7°C° 0 mm 2 m/s 762 mmHg 64%
20:00 +5°C° 0 mm 3 m/s 762 mmHg 69%
21:00 +4°C° 0 mm 3 m/s 762 mmHg 74%
22:00 +3°C° 0 mm 3 m/s 762 mmHg 73%
23:00 +3°C° 0 mm 3 m/s 762 mmHg 72%

Mâine, 12 Aprilie, Luni

Timp Temperatura Precipitaţii Vânt Presiune Umiditate
00:00 +3°C° 0 mm 3 m/s 762 mmHg 71%
01:00 +3°C° 0.2 mm 3 m/s 762 mmHg 75%
02:00 +3°C° 0.2 mm 4 m/s 762 mmHg 79%
03:00 +3°C° 0.2 mm 4 m/s 762 mmHg 84%
04:00 +3°C° 0.1 mm 4 m/s 762 mmHg 85%
05:00 +4°C° 0.1 mm 4 m/s 762 mmHg 87%
06:00 +4°C° 0.1 mm 4 m/s 762 mmHg 89%
07:00 +3°C° 0 mm 5 m/s 762 mmHg 88%
08:00 +5°C° 0 mm 5 m/s 762 mmHg 86%
09:00 +6°C° 0 mm 5 m/s 762 mmHg 85%
10:00 +7°C° 0 mm 5 m/s 762 mmHg 82%
11:00 +9°C° 0 mm 5 m/s 762 mmHg 78%
12:00 +10°C° 0 mm 5 m/s 761 mmHg 75%
13:00 +12°C° 0 mm 5 m/s 761 mmHg 73%
14:00 +13°C° 0 mm 5 m/s 761 mmHg 71%
15:00 +14°C° 0 mm 4 m/s 761 mmHg 69%
16:00 +13°C° 0 mm 4 m/s 760 mmHg 73%
17:00 +13°C° 0 mm 4 m/s 760 mmHg 77%
18:00 +12°C° 0 mm 4 m/s 760 mmHg 82%
19:00 +12°C° 0 mm 4 m/s 760 mmHg 85%
20:00 +11°C° 0 mm 4 m/s 760 mmHg 88%
21:00 +10°C° 0 mm 3 m/s 760 mmHg 91%
22:00 +10°C° 0 mm 3 m/s 760 mmHg 90%
23:00 +10°C° 0 mm 3 m/s 760 mmHg 88%

Poimâine, 13 Aprilie, Marţi

Timp Temperatura Precipitaţii Vânt Presiune Umiditate
00:00 +9°C° 0 mm 3 m/s 760 mmHg 87%
01:00 +9°C° 0 mm 3 m/s 760 mmHg 87%
02:00 +9°C° 0 mm 3 m/s 760 mmHg 86%
03:00 +8°C° 0 mm 3 m/s 760 mmHg 86%
04:00 +8°C° 0 mm 3 m/s 759 mmHg 86%
05:00 +8°C° 0 mm 3 m/s 759 mmHg 85%
06:00 +8°C° 0 mm 3 m/s 759 mmHg 85%
07:00 +10°C° 0 mm 3 m/s 759 mmHg 75%
08:00 +12°C° 0 mm 4 m/s 759 mmHg 65%
09:00 +14°C° 0 mm 4 m/s 759 mmHg 55%
10:00 +15°C° 0 mm 4 m/s 759 mmHg 49%
11:00 +18°C° 0 mm 4 m/s 759 mmHg 43%
12:00 +19°C° 0 mm 4 m/s 758 mmHg 37%
13:00 +20°C° 0 mm 4 m/s 758 mmHg 35%
14:00 +20°C° 0 mm 4 m/s 758 mmHg 33%
15:00 +20°C° 0 mm 4 m/s 757 mmHg 30%
16:00 +19°C° 0 mm 4 m/s 757 mmHg 36%
17:00 +18°C° 0 mm 3 m/s 757 mmHg 41%
18:00 +17°C° 0 mm 2 m/s 757 mmHg 46%
19:00 +16°C° 0 mm 2 m/s 757 mmHg 52%
20:00 +13°C° 0 mm 3 m/s 757 mmHg 58%
21:00 +12°C° 0 mm 3 m/s 757 mmHg 63%
22:00 +11°C° 0 mm 3 m/s 757 mmHg 65%
23:00 +11°C° 0 mm 3 m/s 757 mmHg 67%

14 Aprilie, Miercuri

Timp Temperatura Precipitaţii Vânt Presiune Umiditate
00:00 +10°C° 0 mm 3 m/s 757 mmHg 68%
01:00 +10°C° 0 mm 3 m/s 757 mmHg 69%
02:00 +9°C° 0 mm 3 m/s 756 mmHg 69%
03:00 +9°C° 0 mm 3 m/s 756 mmHg 70%
04:00 +9°C° 0 mm 3 m/s 756 mmHg 70%
05:00 +9°C° 0 mm 3 m/s 756 mmHg 71%
06:00 +8°C° 0 mm 3 m/s 756 mmHg 71%
07:00 +10°C° 0 mm 3 m/s 756 mmHg 64%
08:00 +12°C° 0 mm 3 m/s 756 mmHg 57%
09:00 +14°C° 0 mm 4 m/s 756 mmHg 51%
10:00 +17°C° 0 mm 4 m/s 756 mmHg 45%
11:00 +19°C° 0 mm 4 m/s 755 mmHg 39%
12:00 +20°C° 0 mm 5 m/s 755 mmHg 33%
13:00 +21°C° 0 mm 4 m/s 755 mmHg 32%
14:00 +21°C° 0 mm 4 m/s 755 mmHg 30%
15:00 +21°C° 0 mm 4 m/s 754 mmHg 28%
16:00 +20°C° 0 mm 4 m/s 754 mmHg 34%
17:00 +18°C° 0 mm 3 m/s 754 mmHg 40%
18:00 +17°C° 0 mm 2 m/s 754 mmHg 45%
19:00 +16°C° 0 mm 2 m/s 754 mmHg 50%
20:00 +14°C° 0 mm 2 m/s 754 mmHg 54%
21:00 +13°C° 0 mm 2 m/s 754 mmHg 58%
22:00 +12°C° 0 mm 2 m/s 753 mmHg 60%
23:00 +12°C° 0 mm 2 m/s 753 mmHg 62%

15 Aprilie, Joi

Timp Temperatura Precipitaţii Vânt Presiune Umiditate
00:00 +10°C° 0 mm 2 m/s 753 mmHg 65%
01:00 +10°C° 0 mm 2 m/s 753 mmHg 66%
02:00 +9°C° 0 mm 2 m/s 753 mmHg 67%
03:00 +9°C° 0 mm 2 m/s 753 mmHg 68%
04:00 +9°C° 0 mm 2 m/s 752 mmHg 70%
05:00 +9°C° 0 mm 2 m/s 752 mmHg 72%
06:00 +8°C° 0 mm 2 m/s 752 mmHg 74%
07:00 +10°C° 0 mm 2 m/s 752 mmHg 67%
08:00 +13°C° 0 mm 2 m/s 752 mmHg 60%
09:00 +15°C° 0 mm 2 m/s 752 mmHg 54%
10:00 +16°C° 0 mm 2 m/s 751 mmHg 50%
11:00 +17°C° 0 mm 2 m/s 751 mmHg 46%
12:00 +18°C° 0 mm 2 m/s 751 mmHg 42%
13:00 +19°C° 0 mm 2 m/s 750 mmHg 41%
14:00 +19°C° 0 mm 2 m/s 750 mmHg 39%
15:00 +19°C° 0 mm 2 m/s 750 mmHg 38%
16:00 +18°C° 0 mm 2 m/s 749 mmHg 43%
17:00 +17°C° 0 mm 2 m/s 749 mmHg 48%
18:00 +16°C° 0 mm 2 m/s 749 mmHg 54%
19:00 +15°C° 0 mm 2 m/s 749 mmHg 66%
20:00 +12°C° 0 mm 3 m/s 748 mmHg 79%
21:00 +10°C° 0 mm 3 m/s 748 mmHg 91%
22:00 +10°C° 0 mm 4 m/s 748 mmHg 90%
23:00 +8°C° 0 mm 4 m/s 748 mmHg 90%

16 Aprilie, Vineri

Timp Temperatura Precipitaţii Vânt Presiune Umiditate
00:00 +7°C° 0 mm 4 m/s 748 mmHg 89%
01:00 +6°C° 0 mm 5 m/s 748 mmHg 89%
02:00 +6°C° 0 mm 5 m/s 748 mmHg 88%
03:00 +5°C° 0 mm 5 m/s 747 mmHg 87%
04:00 +3°C° 1 mm 5 m/s 747 mmHg 90%
05:00 +2°C° 1 mm 5 m/s 747 mmHg 93%
06:00 +2°C° 1 mm 5 m/s 747 mmHg 95%
07:00 +1°C° 0.8 mm 5 m/s 747 mmHg 94%
08:00 +1°C° 0.8 mm 6 m/s 747 mmHg 93%
09:00 +1°C° 0.8 mm 6 m/s 748 mmHg 92%
10:00 +1°C° 0.7 mm 6 m/s 748 mmHg 91%
11:00 +1°C° 0.7 mm 6 m/s 748 mmHg 90%
12:00 0°C° 0.7 mm 7 m/s 748 mmHg 90%
13:00 0°C° 1.1 mm 7 m/s 748 mmHg 91%
14:00 +1°C° 1.1 mm 6 m/s 748 mmHg 92%
15:00 +1°C° 1.1 mm 6 m/s 749 mmHg 94%
16:00 +1°C° 0.6 mm 6 m/s 749 mmHg 93%
17:00 +1°C° 0.6 mm 6 m/s 749 mmHg 92%
18:00 +1°C° 0.6 mm 6 m/s 750 mmHg 91%
19:00 +1°C° 0.1 mm 6 m/s 750 mmHg 88%
20:00 -1°C° 0.1 mm 6 m/s 750 mmHg 85%
21:00 -1°C° 0.1 mm 6 m/s 750 mmHg 82%
22:00 -1°C° 0 mm 6 m/s 750 mmHg 80%
23:00 -1°C° 0 mm 6 m/s 750 mmHg 78%
Arată mai mult

Formular de consimțământ

Meteoprog și furnizorii noștri de servicii pot stoca și accesa date personale, precum cookies, identificatori de dispozitiv sau alte tehnologii similare pe dispozitivul dumneavoastră și procesa astfel de date pentru a personaliza conținutul și reclamele, dar și pentru a oferi caracteristici de social media și pentru a analiza traficul.

  • Stocarea și/sau accesarea informațiilor pe dispozitivul dumneavoastră

    Cookies, identificatori de dispozitiv sau alte informații pot fi stocate sau accesate pe dispozitiv în scopurile indicate mai sus.

  • Reclame și conținut personalizat, evaluarea reclamelor și a conținutului, informații despre audiențe și dezvoltarea produselor

    Reclamele și conținutul pot fi personalizate pe baza unui profil. Pot fi adăugate date suplimentare pentru a personaliza mai bine reclamele și conținutul. Performanța reclamelor și conținutului poate fi măsurată. Pot fi obținute informații despre utilizatorii care au văzut reclamele și conținutul. Aceste date pot fi utilizate pentru a dezvolta sau îmbunătăți experiența utilizatorilor, sistemele și software-ul.

Dând clic pe ‘Sunt de acord’, permiteți utilizarea cookie-urilor menționate, a identificatorilor de dispozitiv, balizelor web sau altor tehnologii similare. Setările pot fi modificate din browser-ul dispozitivului dumneavoastră.

În anumite scopuri, interesele legitime pot prima asupra consimțământului. Puteți citi mai multe informații în acest sens în Politica privind Confidențialitatea Datelor și Cookie.